Location: Dzierzno
(50.6159°N, 19.2852°E)
Time: 07:09:36
(UTC+00:00)

ATLAS CENTAUR R/B - Pass Details

Date: 18 November 2025
Orbit: 343 x 424 km, 64.6° (Epoch: 06 December)

Event Time Altitude Azimuth Distance (km) Brightness Sun altitude
Rises 15:46:08 0° 259° (W) 2,433 6.8 -8.5°
Reaches altitude 10° 15:48:35 10° 276° (W) 1,568 4.8 -8.8°
Maximum altitude 15:51:19 21° 328° (NNW) 1,057 2.9 -9.3°
Drops below altitude 10° 15:54:04 10° 19° (NNE) 1,568 3.3 -9.7°
Enters shadow 15:54:52 - 27° (NNE) 1,834 3.6 -9.8°
